Regional Weather Roundup
Issued by NWS

Home | Current Version | Previous Version | Text Only | Print | Product List | Glossary Off
Versions: 1 2 3 4 5 6 7 8 9 10 11 12 13 14 15 16 17 18 19 20 21 22 23 24 25 26 27 28 29 30 31 32 33 34 35 36 37 38 39 40 41 42 43 44 45 46 47 48 49 50

924
ASUS43 KLMK 240710
RWRKY
KENTUCKY REGIONAL WEATHER ROUNDUP
NATIONAL WEATHER SERVICE LOUISVILLE KY
300 AM EDT FRI MAR 24 2017

NOTE "FAIR" INDICATES FEW OR NO CLOUDS BELOW 12,000 FEET
WITH NO SIGNIFICANT WEATHER AND/OR OBSTRUCTIONS TO VISIBILITY.

KYZ001>023-026-027-061>063-070>075-240800-
WESTERN AND SOUTH CENTRAL KENTUCKY

CITY           SKY/WX    TMP DP  RH WIND       PRES   REMARKS
PADUCAH        CLEAR     60  47  61 S8        30.07F
HENDERSON      CLEAR     54  43  66 SE9       30.09F
OWENSBORO      CLEAR     57  45  64 S14       30.13S
HOPKINSVILLE   CLEAR     62  48  60 S13       30.15S
BOWLING GREEN  CLEAR     59  42  53 S13G24    30.20S
GLASGOW        CLEAR     56  39  52 S9G16     30.22R
$$

KYZ024-025-028>034-038-045-046-053-240800-
NORTH CENTRAL KENTUCKY

CITY           SKY/WX    TMP DP  RH WIND       PRES   REMARKS
LOUISVILLE/SDF PTCLDY    60  38  43 S14G23    30.16F
LOUISVILLE/LOU CLEAR     59  40  49 S10       30.17F
FORT KNOX      PTCLDY    55  40  56 S13       30.15S
$$

KYZ035>037-039>044-047>052-055>060-089>105-240800-
NORTHEAST KENTUCKY

CITY           SKY/WX    TMP DP  RH WIND       PRES   REMARKS
LEXINGTON      PTCLDY    56  38  50 S17G23    30.18F
COVINGTON      CLOUDY    53  37  54 S12       30.15F
FRANKFORT      PTCLDY    56  38  50 S8        30.17F
$$

KYZ054-064>069-076>088-106>120-240800-
SOUTHEAST KENTUCKY

CITY           SKY/WX    TMP DP  RH WIND       PRES   REMARKS
JACKSON        CLEAR     55  35  47 S6        30.26F
LONDON         CLEAR     55  37  50 S8        30.27F
SOMERSET       PTCLDY    54  36  50 S14       30.27F
MIDDLESBORO    CLEAR     55  37  50 S9G21     30.33F
MONTICELLO     SUNNY     57  39  51 S13       30.27F
$$





USA.gov is the U.S. government's official web portal to all federal, state and local government web resources and services.